Dewpoint
67 68 67 67 67 66 64 64 63 62 63 64 64 64 63 64 62 63 65 65 66 66 65 64 63 62 60 59 58 60 58 58 58
68 68 67 67 67 65 64 64 62 63 62 62 62 61 60 61 62 62 64 65 66 65 65 63 62 61 60 59 60 58 56 57 57
66 67 67 66 65 64 63 62 63 63 61 62 60 58 59 60 61 63 64 65 65 64 63 62 60 59 60 61 59 58 60 59 61
64 67 66 66 64 64 63 62 63 62 61 61 60 58 56 58 61 62 62 64 64 64 62 61 59 60 61 59 58 59 57 58 61
65 67 66 65 63 64 63 62 63 63 62 61 59 57 55 53 58 60 61 64 64 63 61 61 61 60 58 57 58 57 61 62 58
60 61 63 63 63 63 63 62 63 62 61 60 58 56 51 51 53 55 61 63 63 61 61 61 59 58 59 56 59 62 61 59 58
55 61 62 62 63 64 62 62 62 58 54 55 55 52 52 52 52 56 60 60 62 60 60 59 58 57 58 58 62 61 58 57 57
55 58 60 59 59 58 59 58 55 53 53 53 52 51 53 53 53 57 60 63 62 61 60 59 58 56 57 62 61 59 58 57 55
53 58 61 57 53 54 55 54 55 53 52 51 51 50 55 54 54 57 62 64 63 60 60 58 57 57 60 60 59 57 56 55 53
53 58 61 60 59 55 53 54 54 53 52 51 51 54 57 59 59 62 63 64 62 61 59 58 56 60 60 59 58 57 55 54 53
56 59 60 59 57 53 52 53 53 52 52 52 52 54 57 60 62 65 64 63 62 60 59 58 58 61 59 58 57 56 53 52 51
55 59 59 58 56 53 52 54 54 53 52 52 53 53 54 58 61 63 63 62 60 60 58 57 59 61 59 57 55 54 53 52 52
54 57 57 57 56 54 52 54 55 54 53 54 55 55 54 56 59 60 61 60 59 59 58 58 59 60 58 56 55 54 53 52 52
53 53 55 56 55 54 52 53 55 55 54 56 57 56 56 55 59 58 59 58 58 56 58 58 59 59 58 56 55 53 52 52 51
54 53 54 55 55 53 52 53 55 55 55 55 56 57 57 58 56 57 58 57 57 58 54 57 59 59 59 57 55 53 52 52 51
55 54 54 55 54 53 50 53 54 55 55 54 54 55 57 58 59 59 59 59 57 57 55 56 55 56 59 57 55 54 52 52 51
55 55 54 54 53 52 50 53 53 53 54 49 50 49 52 55 57 58 59 60 59 56 56 57 57 56 58 57 55 54 52 53 52
55 55 54 54 54 53 51 53 53 52 53 52 47 47 45 46 52 55 58 58 59 58 58 58 57 56 58 57 55 55 54 53 52
55 54 54 54 54 53 51 52 53 53 52 50 47 49 46 45 47 51 55 57 57 58 57 58 57 59 59 57 55 54 54 53 53
56 55 55 55 54 53 52 51 53 52 52 51 48 46 47 48 46 45 50 54 56 57 57 57 57 57 59 57 56 54 54 54 54
Wind_Speed
16 18 18 19 18 17 18 17 16 14 13 13 13 12 7 6 13 12 14 16 20 21 23 23 22 20 20 19 19 21 19 20 19
17 19 19 19 18 17 16 14 14 14 13 13 11 9 3 10 11 13 15 15 20 22 22 21 20 19 18 19 20 21 19 17 17
15 16 17 17 18 17 15 12 15 15 13 12 11 9 5 8 10 13 14 16 18 21 20 20 19 18 18 20 20 19 17 16 15
13 16 18 19 18 17 15 12 14 15 13 11 9 8 3 8 9 13 12 14 18 20 19 18 18 19 20 20 19 17 17 17 22
13 16 16 19 19 16 15 12 12 14 12 10 9 7 5 8 7 8 10 14 17 19 17 17 20 20 17 17 17 14 16 20 22
13 12 19 19 19 17 15 11 8 14 12 11 10 8 6 7 7 6 11 13 17 18 17 18 18 18 17 17 14 18 22 22 20
12 11 15 19 18 16 14 9 9 15 11 8 8 6 7 7 8 10 10 13 19 18 17 18 17 17 14 15 16 20 21 20 20
11 12 14 14 17 14 12 11 13 9 9 8 6 7 7 7 7 10 9 17 20 20 17 17 17 17 15 17 20 21 19 20 18
13 14 14 14 13 13 12 11 11 11 9 8 7 8 6 5 7 11 5 17 20 19 17 16 15 16 15 20 20 18 18 18 15
14 14 13 12 11 12 12 11 12 11 10 7 8 8 5 6 5 7 10 18 18 18 15 14 15 14 20 19 18 18 17 16 13
14 13 13 12 10 11 12 11 12 11 10 9 7 7 5 4 9 10 11 17 17 15 14 14 15 16 19 18 16 16 14 14 14
16 11 11 10 9 10 11 9 11 11 9 9 7 6 6 5 8 10 9 12 13 11 13 13 13 17 18 16 15 15 13 12 12
18 13 11 10 11 9 12 11 11 12 10 9 7 6 5 8 5 10 12 10 8 11 11 12 14 17 16 14 14 14 13 11 10
19 18 15 14 11 11 12 12 12 12 10 8 7 5 6 6 7 8 11 11 8 6 11 10 9 14 16 15 12 12 13 11 10
19 18 17 16 13 12 14 15 11 12 11 9 7 3 4 3 6 9 11 11 9 6 11 13 14 12 16 17 15 12 12 11 10
20 18 18 17 16 15 17 15 15 12 12 11 6 3 3 4 4 5 6 9 10 9 11 12 11 11 17 16 15 14 14 13 11
22 21 20 19 16 16 18 16 16 9 13 13 12 7 5 5 5 4 5 8 5 9 13 11 7 12 15 16 17 16 15 14 13
22 22 21 21 17 17 19 19 19 14 13 7 9 6 8 11 7 9 6 8 11 8 7 9 10 12 15 15 15 17 15 14 13
22 20 22 21 18 18 19 19 19 17 16 7 3 1 2 9 6 8 10 8 8 10 10 8 9 9 9 12 16 18 17 15 14
20 19 21 21 19 19 20 20 21 20 18 17 9 3 3 3 6 7 10 8 9 7 9 10 11 11 11 12 14 21 19 17 16
Wind_Direction
151 136 128 121 121 124 126 123 119 119 117 111 102 92 100 177 110 105 101 114 105 100 96 94 89 88 87 86 82 83 80 77 76
128 132 128 128 128 127 127 127 129 126 115 112 107 102 77 117 112 108 112 113 110 107 102 98 95 92 89 90 93 88 85 85 89
136 140 138 136 137 133 129 128 134 127 121 118 113 112 116 121 110 106 104 109 113 106 103 102 101 97 98 98 93 92 94 97 90
138 142 142 140 138 137 132 133 135 129 122 119 115 110 60 128 119 117 113 113 112 109 107 108 101 100 100 99 96 101 101 98 88
141 148 149 148 135 133 130 136 146 130 124 121 124 121 154 140 141 127 115 122 116 112 107 105 103 103 101 101 102 109 93 97 87
160 171 155 141 137 138 135 141 139 132 125 128 137 176 151 151 158 151 131 127 128 117 110 112 109 109 105 111 107 99 100 90 87
182 146 150 139 140 137 134 137 148 165 149 140 161 157 153 150 157 124 147 159 137 123 121 119 118 115 115 113 103 105 94 91 88
188 163 152 145 148 154 154 154 169 171 159 164 171 171 143 153 154 128 178 145 138 128 129 128 127 126 122 111 106 99 98 92 92
183 167 174 161 171 159 167 169 167 169 167 161 159 169 144 157 151 134 157 149 138 132 136 133 133 130 126 115 105 103 98 96 95
180 179 172 162 166 163 168 171 167 169 163 151 155 138 143 160 149 143 159 146 135 136 138 139 141 136 124 115 114 109 102 99 98
178 182 170 154 156 163 168 172 175 170 166 157 154 153 120 147 101 113 137 135 139 143 143 141 146 142 129 123 119 112 111 109 104
175 156 153 148 150 170 159 166 174 170 168 163 161 163 154 137 126 134 125 133 138 151 148 148 155 146 132 131 126 119 117 115 117
181 168 156 158 165 168 166 170 174 173 172 161 152 153 162 151 161 155 150 150 147 148 143 158 159 144 135 135 131 126 125 123 121
187 185 175 180 177 182 176 176 175 171 168 140 146 163 157 174 173 199 160 157 160 165 155 161 157 158 150 144 140 141 139 135 130
188 188 183 186 182 179 180 172 174 175 161 139 124 137 149 174 200 198 186 179 169 178 167 163 166 173 155 155 151 153 150 149 142
190 187 186 186 188 184 182 174 165 167 160 138 117 93 158 169 194 209 196 199 181 187 182 190 167 179 163 165 161 164 162 163 158
190 188 185 187 189 186 182 176 172 169 180 186 180 187 193 201 203 197 210 209 199 195 200 192 181 181 176 178 171 173 174 172 169
189 191 186 187 190 188 187 185 179 172 185 211 197 179 210 202 190 209 201 200 203 198 193 189 191 199 195 175 184 179 180 184 180
190 192 188 189 190 191 193 195 195 186 184 176 184 319 211 200 192 209 212 208 200 205 204 197 212 203 200 184 185 188 188 192 191
187 187 191 190 194 194 192 194 201 200 195 198 179 167 168 242 240 200 200 213 215 206 203 204 205 202 211 200 199 192 194 198 205